When you browse on this site, cookies collect data to enhance your experience and personalize the content and advertising you see.
Visit our Privacy Policy to learn more. By continuing to use the site, you agree to this use of cookies and data.
  • In Austria
  • List of Countries
  • For 7 days
  • Water Temperature
  • Weather Map
  • News
  • Weather Widgets
  • user-avatar
    Login

    Hourly Weather Novokindelka

    Today, 2 June, Tuesday

    Time Temperature Precipitation Wind Pressure Humidity
    00:00 +18°C° 0 mm 1 mps 749 mmHg 71%
    01:00 +16°C° 0 mm 1 mps 749 mmHg 73%
    02:00 +16°C° 0 mm 1 mps 749 mmHg 75%
    03:00 +16°C° 0 mm 1 mps 749 mmHg 76%
    04:00 +15°C° 0 mm 1 mps 749 mmHg 76%
    05:00 +18°C° 0 mm 1 mps 749 mmHg 73%
    06:00 +19°C° 0 mm 1 mps 749 mmHg 71%
    07:00 +19°C° 0 mm 2 mps 749 mmHg 68%
    08:00 +20°C° 0 mm 2 mps 750 mmHg 64%
    09:00 +21°C° 0 mm 2 mps 750 mmHg 60%
    10:00 +23°C° 0 mm 2 mps 750 mmHg 56%
    11:00 +24°C° 0 mm 2 mps 750 mmHg 51%
    12:00 +25°C° 0 mm 1 mps 750 mmHg 46%
    13:00 +26°C° 0 mm 1 mps 750 mmHg 41%
    14:00 +26°C° 0 mm 1 mps 750 mmHg 41%
    15:00 +26°C° 0 mm 2 mps 750 mmHg 42%
    16:00 +27°C° 0 mm 2 mps 750 mmHg 42%
    17:00 +25°C° 0 mm 3 mps 749 mmHg 50%
    18:00 +23°C° 0 mm 4 mps 749 mmHg 58%
    19:00 +22°C° 0 mm 5 mps 749 mmHg 67%
    20:00 +20°C° 0 mm 5 mps 749 mmHg 70%
    21:00 +19°C° 0 mm 5 mps 749 mmHg 73%
    22:00 +17°C° 0 mm 5 mps 749 mmHg 77%
    23:00 +17°C° 0 mm 5 mps 749 mmHg 76%

    Tomorrow, 3 June, Wednesday

    Time Temperature Precipitation Wind Pressure Humidity
    00:00 +17°C° 0 mm 4 mps 749 mmHg 76%
    01:00 +17°C° 0 mm 4 mps 748 mmHg 75%
    02:00 +15°C° 0 mm 4 mps 749 mmHg 76%
    03:00 +16°C° 0 mm 3 mps 749 mmHg 78%
    04:00 +14°C° 0 mm 3 mps 749 mmHg 79%
    05:00 +15°C° 0 mm 4 mps 749 mmHg 76%
    06:00 +18°C° 0 mm 4 mps 749 mmHg 73%
    07:00 +19°C° 0 mm 4 mps 748 mmHg 70%
    08:00 +21°C° 0 mm 4 mps 749 mmHg 64%
    09:00 +23°C° 0 mm 4 mps 749 mmHg 57%
    10:00 +26°C° 0 mm 4 mps 749 mmHg 51%
    11:00 +27°C° 0 mm 5 mps 749 mmHg 48%
    12:00 +28°C° 0 mm 5 mps 749 mmHg 45%
    13:00 +29°C° 0 mm 5 mps 748 mmHg 42%
    14:00 +29°C° 0 mm 5 mps 748 mmHg 42%
    15:00 +29°C° 0 mm 5 mps 748 mmHg 42%
    16:00 +29°C° 0 mm 5 mps 748 mmHg 43%
    17:00 +28°C° 0 mm 5 mps 748 mmHg 48%
    18:00 +26°C° 0 mm 4 mps 748 mmHg 54%
    19:00 +25°C° 0 mm 4 mps 748 mmHg 59%
    20:00 +23°C° 0 mm 5 mps 748 mmHg 62%
    21:00 +22°C° 0 mm 6 mps 748 mmHg 65%
    22:00 +21°C° 0 mm 7 mps 748 mmHg 68%
    23:00 +20°C° 0 mm 7 mps 748 mmHg 68%

    Day after tomorrow, 4 June, Thursday

    Time Temperature Precipitation Wind Pressure Humidity
    00:00 +20°C° 0 mm 7 mps 747 mmHg 69%
    01:00 +18°C° 0 mm 7 mps 747 mmHg 69%
    02:00 +19°C° 0 mm 6 mps 747 mmHg 69%
    03:00 +19°C° 0 mm 6 mps 747 mmHg 69%
    04:00 +17°C° 0 mm 6 mps 747 mmHg 69%
    05:00 +19°C° 0 mm 6 mps 747 mmHg 68%
    06:00 +19°C° 0 mm 6 mps 747 mmHg 68%
    07:00 +20°C° 0 mm 7 mps 747 mmHg 67%
    08:00 +20°C° 0 mm 7 mps 747 mmHg 66%
    09:00 +21°C° 0 mm 7 mps 747 mmHg 64%
    10:00 +22°C° 0 mm 7 mps 748 mmHg 62%
    11:00 +22°C° 0 mm 7 mps 747 mmHg 61%
    12:00 +23°C° 0 mm 7 mps 747 mmHg 59%
    13:00 +24°C° 0 mm 7 mps 747 mmHg 58%
    14:00 +23°C° 0 mm 7 mps 748 mmHg 59%
    15:00 +23°C° 0 mm 7 mps 748 mmHg 60%
    16:00 +23°C° 0 mm 7 mps 748 mmHg 61%
    17:00 +22°C° 0 mm 7 mps 748 mmHg 62%
    18:00 +21°C° 0 mm 8 mps 748 mmHg 64%
    19:00 +20°C° 0 mm 8 mps 748 mmHg 65%
    20:00 +20°C° 0 mm 8 mps 748 mmHg 62%
    21:00 +20°C° 0 mm 8 mps 748 mmHg 60%
    22:00 +20°C° 0 mm 8 mps 749 mmHg 58%
    23:00 +20°C° 0 mm 8 mps 749 mmHg 55%

    5 June, Friday

    Time Temperature Precipitation Wind Pressure Humidity
    00:00 +20°C° 0 mm 8 mps 749 mmHg 52%
    01:00 +18°C° 0 mm 8 mps 749 mmHg 49%
    02:00 +18°C° 0 mm 7 mps 749 mmHg 51%
    03:00 +17°C° 0 mm 7 mps 749 mmHg 53%
    04:00 +16°C° 0 mm 7 mps 749 mmHg 54%
    05:00 +16°C° 0 mm 7 mps 749 mmHg 56%
    06:00 +16°C° 0 mm 8 mps 749 mmHg 58%
    07:00 +16°C° 0 mm 8 mps 749 mmHg 60%
    08:00 +17°C° 0 mm 8 mps 750 mmHg 60%
    09:00 +17°C° 0 mm 8 mps 750 mmHg 60%
    10:00 +18°C° 0 mm 8 mps 750 mmHg 59%
    11:00 +18°C° 0.4 mm 7 mps 750 mmHg 60%
    12:00 +20°C° 0.4 mm 7 mps 750 mmHg 61%
    13:00 +20°C° 0.4 mm 6 mps 751 mmHg 62%
    14:00 +20°C° 0.4 mm 7 mps 750 mmHg 62%
    15:00 +20°C° 0.4 mm 7 mps 750 mmHg 63%
    16:00 +20°C° 0.4 mm 7 mps 750 mmHg 63%
    17:00 +18°C° 0.1 mm 7 mps 750 mmHg 64%
    18:00 +17°C° 0.1 mm 6 mps 750 mmHg 65%
    19:00 +17°C° 0.1 mm 6 mps 750 mmHg 67%
    20:00 +16°C° 0 mm 7 mps 751 mmHg 66%
    21:00 +16°C° 0 mm 7 mps 751 mmHg 65%
    22:00 +16°C° 0 mm 7 mps 751 mmHg 64%
    23:00 +15°C° 0 mm 7 mps 751 mmHg 64%

    6 June, Saturday

    Time Temperature Precipitation Wind Pressure Humidity
    00:00 +15°C° 0 mm 6 mps 751 mmHg 64%
    01:00 +14°C° 0 mm 6 mps 751 mmHg 64%
    02:00 +14°C° 0.2 mm 5 mps 751 mmHg 65%
    03:00 +13°C° 0.2 mm 4 mps 751 mmHg 67%
    04:00 +13°C° 0.2 mm 4 mps 751 mmHg 69%
    05:00 +13°C° 0.4 mm 4 mps 751 mmHg 71%
    06:00 +13°C° 0.4 mm 4 mps 751 mmHg 72%
    07:00 +13°C° 0.4 mm 4 mps 751 mmHg 74%
    08:00 +13°C° 0.7 mm 4 mps 751 mmHg 76%
    09:00 +13°C° 0.7 mm 4 mps 752 mmHg 77%
    10:00 +13°C° 0.7 mm 4 mps 752 mmHg 78%
    11:00 +13°C° 0.2 mm 4 mps 752 mmHg 78%
    12:00 +14°C° 0.2 mm 4 mps 752 mmHg 77%
    13:00 +14°C° 0.2 mm 4 mps 753 mmHg 76%
    14:00 +14°C° 0 mm 4 mps 753 mmHg 75%
    15:00 +14°C° 0 mm 5 mps 753 mmHg 74%
    16:00 +14°C° 0 mm 5 mps 753 mmHg 73%
    17:00 +14°C° 0 mm 5 mps 753 mmHg 74%
    18:00 +14°C° 0 mm 4 mps 753 mmHg 74%
    19:00 +14°C° 0 mm 4 mps 753 mmHg 74%
    20:00 +14°C° 0 mm 4 mps 753 mmHg 72%
    21:00 +14°C° 0 mm 4 mps 753 mmHg 69%
    22:00 +14°C° 0 mm 3 mps 753 mmHg 67%
    23:00 +14°C° 0 mm 4 mps 753 mmHg 65%

    7 June, Sunday

    Time Temperature Precipitation Wind Pressure Humidity
    00:00 +14°C° 0 mm 4 mps 753 mmHg 64%
    01:00 +14°C° 0 mm 4 mps 753 mmHg 62%
    02:00 +14°C° 0 mm 4 mps 754 mmHg 63%
    03:00 +13°C° 0 mm 4 mps 754 mmHg 65%
    04:00 +13°C° 0 mm 4 mps 754 mmHg 66%
    05:00 +14°C° 0 mm 4 mps 754 mmHg 66%
    06:00 +14°C° 0 mm 4 mps 754 mmHg 66%
    07:00 +15°C° 0 mm 4 mps 754 mmHg 66%
    08:00 +17°C° 0 mm 4 mps 755 mmHg 60%
    09:00 +19°C° 0 mm 4 mps 755 mmHg 54%
    10:00 +21°C° 0 mm 4 mps 755 mmHg 49%
    11:00 +22°C° 0 mm 4 mps 755 mmHg 45%
    12:00 +23°C° 0 mm 5 mps 755 mmHg 42%
    13:00 +25°C° 0 mm 5 mps 755 mmHg 38%
    14:00 +25°C° 0 mm 5 mps 755 mmHg 39%
    15:00 +26°C° 0 mm 5 mps 755 mmHg 39%
    16:00 +26°C° 0 mm 4 mps 755 mmHg 39%
    17:00 +23°C° 0 mm 5 mps 755 mmHg 45%
    18:00 +22°C° 0 mm 5 mps 755 mmHg 51%
    19:00 +20°C° 0 mm 5 mps 755 mmHg 56%
    20:00 +19°C° 0 mm 4 mps 755 mmHg 59%
    21:00 +18°C° 0 mm 4 mps 755 mmHg 61%
    22:00 +16°C° 0 mm 3 mps 755 mmHg 64%
    23:00 +16°C° 0 mm 3 mps 755 mmHg 67%
    Show more